User: anonymous   Login
Location: Bühlhof
(48.7849°N, 8.6361°E)
Time: 11:02:07
(UTC+00:00)
Language:

ISS - Orbit

View from above orbital plane
View from above orbital plane
View from above satellite
View from above satellite

Ground track
Ground track

The orbit is defined by the following mean orbital elements,

1 25544U          26071.15917148 +.00000000 +00000-0 +17667-3 0 00005
2 25544  51.6325  60.1463 0007984 183.4136 176.6799 15.48595269    07
Epoch (UTC): 12 March 2026 03:49:12
Eccentricity: 0.0007984
inclination: 51.6325°
perigee height: 415 km
apogee height: 426 km
right ascension of ascending node: 60.1463°
argument of perigee: 183.4136°
revolutions per day: 15.48595269
mean anomaly at epoch: 176.6799°

The dashed part of the orbit path shows where the satellite is in the earth's shadow,  

DLR